User: anonymous   Login
Location: Unspecified
(0.0000°N, 0.0000°E)
Time: 01:25:25
(UTC+00:00)
Language:

Vanguard 1 Rocket - Orbit

View from above orbital plane
View from above orbital plane
View from above satellite
View from above satellite

Ground track
Ground track

The orbit data is extracted from the following two-line orbital elements,

1    16U 58002A   18225.34660228 +.00000216 +00000-0 +27171-3 0  9991
2    16 034.2796 301.2400 2028092 275.3442 062.0493 10.48676357388066
Epoch (UTC): 13 August 2018 08:19:06
Eccentricity: 0.2028092
inclination: 34.2796°
perigee height: 650 km
apogee height: 4226 km
right ascension of ascending node: 301.2400°
argument of perigee: 275.3442°
revolutions per day: 10.48676357
mean anomaly at epoch: 62.0493°
orbit number at epoch: 38806

The dashed part of the orbit path shows where the satellite is in the earth's shadow,  

DLR